Date String (YYYY-MM-DD hh:mm:ss) UTC,Instrument flags,Ambient pressure (hPa),Sample flow (lpm),Bypass flow (lpm),Sample temperature (°C),Ambient temperature (°C),ASC tube jacket temperature (°C),LED temperature (°C),Box temperature (°C),Sample RH (%),Span deviation,Mass concentration (μg/m³),Mass concentration (μg/m³),Mass concentration (μg/m³)
DateTimeUTC,F1_M11,P_M11,Q1_M11,Q2_M11,T1_M11,T2_M11,T3_M11,T4_M11,T5_M11,U1_M11,ZSPAN_M11,X0_M11,X2_M11,X1_M11
2022-12-29 18:00:00,,0817.5,4.97,0.00,22.6,21.6,00.0,31.3,24.3,11.2,0000.0,0005.36,0003.55,0003.36
2022-12-29 18:01:00,,0817.4,5.02,0.00,22.6,21.6,00.0,31.3,24.3,11.0,0000.0,0005.30,0003.48,0003.29
2022-12-29 18:02:00,,0817.5,4.98,0.00,22.6,21.7,00.0,31.3,24.4,11.3,0000.0,0005.13,0003.41,0003.23
2022-12-29 18:03:00,,0817.4,5.02,0.00,22.6,21.7,00.0,31.3,24.4,11.2,0000.0,0005.17,0003.35,0003.17
2022-12-29 18:04:00,,0817.3,4.99,0.00,22.6,21.7,00.0,31.3,24.4,10.6,0000.0,0006.06,0003.29,0003.06
2022-12-29 18:05:00,,0817.3,4.99,0.00,22.6,21.5,00.0,31.3,24.3,10.3,0000.0,0006.25,0003.20,0002.86
2022-12-29 18:06:00,,0817.4,4.98,0.00,22.6,21.4,00.0,31.3,24.3,10.8,0000.0,0005.95,0003.05,0002.70
2022-12-29 18:07:00,,0817.3,5.03,0.00,22.6,21.4,00.0,31.3,24.3,12.0,0000.0,0005.86,0003.03,0002.70
2022-12-29 18:08:00,,0817.4,5.02,0.00,22.6,21.4,00.0,31.4,24.3,12.2,0000.0,0005.85,0003.11,0002.76
2022-12-29 18:09:00,,0817.4,4.98,0.00,22.6,21.5,00.0,31.4,24.3,11.8,0000.0,0005.14,0003.08,0002.74
2022-12-29 18:10:00,,0817.4,4.98,0.00,22.6,21.6,00.0,31.4,24.4,12.0,0000.0,0005.05,0003.01,0002.69
2022-12-29 18:11:00,,0817.4,5.01,0.00,22.6,21.6,00.0,31.4,24.4,11.4,0000.0,0005.00,0003.01,0002.70
2022-12-29 18:12:00,,0817.4,5.04,0.00,22.7,21.7,00.0,31.4,24.5,11.1,0000.0,0004.90,0003.03,0002.74
2022-12-29 18:13:00,,0817.4,5.00,0.00,22.7,21.8,00.0,31.4,24.5,10.8,0000.0,0005.05,0003.09,0002.75
2022-12-29 18:14:00,,0817.5,4.99,0.00,22.7,21.8,00.0,31.4,24.5,11.2,0000.0,0005.09,0003.12,0002.75
2022-12-29 18:15:00,,0817.4,4.98,0.00,22.8,21.8,00.0,31.4,24.5,11.5,0000.0,0004.29,0003.18,0002.86
2022-12-29 18:16:00,,0817.5,5.00,0.00,22.8,21.8,00.0,31.5,24.6,11.2,0000.0,0003.93,0003.23,0003.01
2022-12-29 18:17:00,,0817.5,5.01,0.00,22.8,21.8,00.0,31.5,24.6,11.1,0000.0,0004.05,0003.29,0003.11
2022-12-29 18:18:00,,0817.4,5.00,0.00,22.8,21.8,00.0,31.5,24.6,10.8,0000.0,0004.11,0003.23,0003.01
2022-12-29 18:19:00,,0817.4,5.01,0.00,22.8,21.7,00.0,31.5,24.6,10.9,0000.0,0004.21,0003.18,0002.94
2022-12-29 18:20:00,,0817.3,4.99,0.00,22.8,21.6,00.0,31.5,24.6,11.0,0000.0,0004.11,0003.15,0002.90
2022-12-29 18:21:00,,0817.3,4.97,0.00,22.8,21.5,00.0,31.5,24.6,10.7,0000.0,0004.03,0003.09,0002.82
2022-12-29 18:22:00,,0817.3,5.03,0.00,22.8,21.4,00.0,31.5,24.5,11.0,0000.0,0004.03,0003.08,0002.81
2022-12-29 18:23:00,,0817.4,4.98,0.00,22.7,21.4,00.0,31.5,24.4,11.5,0000.0,0004.15,0003.13,0002.87
2022-12-29 18:24:00,,0817.4,5.01,0.00,22.7,21.4,00.0,31.5,24.5,11.8,0000.0,0004.83,0003.18,0002.98
2022-12-29 18:25:00,,0817.4,5.01,0.00,22.7,21.4,00.0,31.5,24.5,12.2,0000.0,0004.88,0003.24,0003.09
2022-12-29 18:26:00,,0817.4,4.97,0.00,22.7,21.4,00.0,31.5,24.5,12.2,0000.0,0004.88,0003.27,0003.14
2022-12-29 18:27:00,,0817.3,4.97,0.00,22.7,21.5,00.0,31.5,24.5,12.2,0000.0,0005.16,0003.36,0003.21
2022-12-29 18:28:00,,0817.3,5.01,0.00,22.7,21.5,00.0,31.5,24.5,12.2,0000.0,0005.31,0003.45,0003.28
2022-12-29 18:29:00,,0817.4,5.03,0.00,22.7,21.6,00.0,31.5,24.5,12.7,0000.0,0005.31,0003.55,0003.39
2022-12-29 18:30:00,,0817.3,4.98,0.00,22.7,21.6,00.0,31.5,24.5,12.9,0000.0,0005.29,0003.67,0003.50
2022-12-29 18:31:00,,0817.4,4.97,0.00,22.7,21.7,00.0,31.5,24.5,12.8,0000.0,0005.60,0003.79,0003.61
2022-12-29 18:32:00,,0817.4,5.00,0.00,22.8,21.7,00.0,31.5,24.5,12.9,0000.0,0005.83,0003.92,0003.73
2022-12-29 18:33:00,,0817.5,4.99,0.00,22.8,21.8,00.0,31.5,24.5,12.8,0000.0,0006.01,0004.02,0003.83
2022-12-29 18:34:00,,0817.5,5.02,0.00,22.8,21.8,00.0,31.5,24.5,12.5,0000.0,0006.04,0004.08,0003.89
2022-12-29 18:35:00,,0817.4,5.00,0.00,22.8,21.8,00.0,31.6,24.5,12.4,0000.0,0005.52,0004.13,0003.93
2022-12-29 18:36:00,,0817.3,4.97,0.00,22.8,21.8,00.0,31.6,24.6,12.4,0000.0,0005.57,0004.15,0003.95
2022-12-29 18:37:00,,0817.3,4.98,0.00,22.9,21.9,00.0,31.6,24.6,12.3,0000.0,0005.57,0004.16,0003.97
2022-12-29 18:38:00,,0817.3,5.01,0.00,22.9,21.9,00.0,31.6,24.7,12.1,0000.0,0005.54,0004.17,0003.99
2022-12-29 18:39:00,,0817.3,5.03,0.00,22.9,21.9,00.0,31.6,24.7,12.1,0000.0,0005.60,0004.18,0004.01
2022-12-29 18:40:00,,0817.3,5.00,0.00,22.9,21.9,00.0,31.6,24.8,12.1,0000.0,0005.71,0004.21,0004.01
2022-12-29 18:41:00,,0817.3,5.01,0.00,22.9,21.9,00.0,31.6,24.8,12.3,0000.0,0006.48,0004.19,0004.01
2022-12-29 18:42:00,,0817.4,4.99,0.00,22.9,21.9,00.0,31.7,24.7,12.4,0000.0,0006.99,0004.20,0004.00
2022-12-29 18:43:00,,0817.4,4.98,0.00,23.0,21.9,00.0,31.7,24.7,12.5,0000.0,0006.95,0004.18,0004.00
2022-12-29 18:44:00,,0817.3,4.98,0.00,23.0,21.9,00.0,31.7,24.8,12.6,0000.0,0006.96,0004.19,0004.00
2022-12-29 18:45:00,,0817.4,4.99,0.00,23.0,22.0,00.0,31.7,24.8,12.6,0000.0,0007.10,0004.21,0004.02
2022-12-29 18:46:00,,0817.4,5.03,0.00,23.0,22.0,00.0,31.7,24.8,12.5,0000.0,0007.36,0004.25,0004.05
2022-12-29 18:47:00,,0817.3,5.01,0.00,23.0,22.0,00.0,31.7,24.8,12.5,0000.0,0007.37,0004.26,0004.06
2022-12-29 18:48:00,,0817.4,4.98,0.00,23.0,22.0,00.0,31.7,24.9,12.5,0000.0,0007.37,0004.27,0004.08
2022-12-29 18:49:00,,0817.3,4.97,0.00,23.1,22.0,00.0,31.8,24.9,12.5,0000.0,0007.34,0004.26,0004.08
2022-12-29 18:50:00,,0817.3,4.98,0.00,23.1,22.0,00.0,31.8,24.9,12.7,0000.0,0007.31,0004.27,0004.10
2022-12-29 18:51:00,,0817.3,5.02,0.00,23.1,22.0,00.0,31.8,24.9,12.7,0000.0,0007.36,0004.29,0004.11
2022-12-29 18:52:00,,0817.2,5.03,0.00,23.1,22.0,00.0,31.8,24.9,12.7,0000.0,0006.75,0004.29,0004.12
2022-12-29 18:53:00,,0817.2,5.00,0.00,23.1,22.0,00.0,31.8,24.9,12.6,0000.0,0006.74,0004.29,0004.13
2022-12-29 18:54:00,,0817.2,4.99,0.00,23.1,22.0,00.0,31.8,24.9,12.8,0000.0,0007.48,0004.33,0004.15
2022-12-29 18:55:00,,0817.2,4.98,0.00,23.1,22.0,00.0,31.8,24.9,12.6,0000.0,0007.91,0004.37,0004.15
2022-12-29 18:56:00,,0817.3,4.98,0.00,23.1,22.0,00.0,31.8,24.9,12.6,0000.0,0007.98,0004.40,0004.15
2022-12-29 18:57:00,,0817.3,5.04,0.00,23.1,22.1,00.0,31.9,24.9,12.5,0000.0,0007.83,0004.38,0004.15
2022-12-29 18:58:00,,0817.3,5.02,0.00,23.2,22.1,00.0,31.9,24.9,12.5,0000.0,0007.88,0004.40,0004.17
2022-12-29 18:59:00,,0817.2,4.98,0.00,23.2,22.1,00.0,31.9,24.9,12.4,0000.0,0008.04,0004.45,0004.19
